Location: Unspecified
(41.1637°N, 24.2901°E)
Time: 02:17:37
(UTC+01:00)

ISS - Pass Details

Date: 11 January 2026
Orbit: 413 x 424 km, 51.6° (Epoch: 16 January)

Event Time Altitude Azimuth Distance (km) Brightness Sun altitude
Rises 18:34:12 0° 238° (WSW) 2,339 1.1 -25.7°
Reaches altitude 10° 18:36:17 10° 241° (WSW) 1,481 -0.1 -26.1°
Enters shadow 18:37:51 25° 246° (WSW) 873 -1.5 -26.4°
